Theta_e
319 319 319 320 319 319 319 319 319 320 320 320 320 320 321 321 320 316 306 314 319 344 344 327 323 326 330 338 340 335 320 316 317 321 324 332 328 333 335 329 331 332 329 335 339
320 319 319 319 318 318 319 319 319 320 320 320 320 320 320 321 314 308 322 342 344 348 316 325 319 327 327 334 337 329 317 317 323 326 327 330 327 331 329 328 328 330 333 338 340
319 319 319 319 319 319 318 319 320 320 320 320 319 319 320 319 311 310 344 340 343 340 315 326 326 324 322 334 333 324 319 323 324 330 332 330 327 333 327 323 327 326 329 333 336
319 318 318 318 318 318 319 319 319 319 320 319 319 319 321 314 305 319 348 343 343 316 312 318 320 315 317 325 332 324 327 324 326 332 333 330 333 329 330 328 331 330 333 332 332
318 318 318 318 318 318 318 318 319 318 318 318 319 320 316 309 308 328 344 341 319 309 309 318 316 314 312 324 329 323 323 325 333 333 332 331 327 329 329 333 333 333 333 330 331
319 319 318 319 318 318 318 317 317 317 318 318 319 320 310 301 323 327 325 325 311 306 310 317 318 317 312 325 327 330 328 329 333 331 332 327 325 330 330 333 331 331 329 331 333
319 319 319 318 318 317 317 317 316 316 317 319 319 317 310 309 318 324 319 315 307 307 311 319 322 316 314 320 332 331 326 329 330 329 327 330 321 322 328 331 329 329 328 331 333
319 319 319 318 318 318 317 316 316 316 317 319 319 314 306 320 319 319 316 311 310 311 313 320 321 315 310 313 325 325 325 318 327 329 329 327 314 324 327 329 326 328 328 330 333
319 318 318 318 318 317 317 316 317 320 319 320 313 309 306 318 311 317 320 313 309 310 313 321 317 310 311 307 314 318 314 317 322 330 326 325 317 324 329 327 325 324 326 329 332
319 318 318 317 317 316 315 316 320 320 320 319 317 306 313 309 310 313 322 319 312 312 312 312 308 303 304 302 305 309 313 316 318 326 325 322 320 323 325 325 326 329 326 326 330
318 318 318 317 315 314 313 313 314 311 314 310 310 310 312 316 315 318 318 316 312 307 302 306 299 297 302 307 314 317 314 317 319 323 325 321 318 319 323 326 327 329 324 328 331
318 317 316 316 315 314 310 309 314 314 304 316 316 314 314 315 310 314 316 309 306 300 304 299 296 304 309 310 315 316 314 315 317 320 322 321 319 320 323 326 328 329 328 330 333
317 315 314 313 314 309 311 313 319 318 303 310 316 310 310 313 309 308 310 307 304 300 300 297 301 307 307 308 312 311 309 314 314 317 320 320 316 319 323 330 331 330 329 331 333
316 314 313 312 309 314 313 320 320 318 299 306 305 309 311 312 308 315 312 306 303 299 300 300 306 305 304 305 313 310 319 318 315 312 304 316 305 316 320 323 328 328 324 326 331
315 314 313 312 308 309 315 318 315 312 292 305 305 315 312 306 309 309 314 308 302 302 300 299 303 303 302 306 315 314 319 316 315 310 307 308 306 313 321 318 321 326 324 326 330
315 313 313 312 311 313 317 317 314 300 293 305 309 307 306 307 308 311 309 310 310 304 303 302 308 306 306 311 316 318 318 317 315 311 302 309 308 309 316 319 321 326 323 326 330
313 312 311 316 312 318 315 312 300 294 307 303 302 306 305 304 306 307 304 301 298 292 293 300 302 307 311 307 310 312 308 298 298 299 299 310 310 310 319 324 324 325 325 325 329
311 309 311 316 318 317 314 305 295 304 304 309 308 307 303 307 307 306 302 299 303 302 295 293 293 305 310 305 302 304 301 297 294 294 297 306 306 313 321 327 329 328 327 328 328
309 315 315 318 317 317 308 300 299 303 307 306 306 302 302 306 306 305 300 300 304 305 296 295 297 309 310 310 306 303 298 305 298 300 296 302 314 321 325 321 322 325 330 327 327
311 316 317 318 320 312 304 299 305 309 309 308 300 305 300 302 303 302 301 306 305 307 305 302 295 305 308 308 307 303 304 294 294 289 292 301 306 307 314 320 321 317 317 330 329
315 310 318 321 318 309 301 304 307 309 309 305 305 303 303 303 303 303 303 307 310 307 306 300 299 301 305 300 299 298 296 297 297 297 292 295 299 318 318 321 316 318 321 326 330
317 308 317 319 307 309 306 306 305 306 309 308 309 307 305 305 303 303 303 307 312 309 302 305 296 294 298 305 306 302 298 297 292 293 295 296 302 320 320 321 320 320 325 330 331
312 314 319 318 303 306 309 306 306 304 306 306 307 308 307 304 302 306 307 312 310 308 302 304 299 295 299 302 304 298 301 301 296 294 291 293 301 318 318 319 322 323 325 327 334
314 308 311 314 313 308 305 304 302 306 306 308 307 307 306 305 306 304 306 309 309 308 322 311 300 297 294 298 302 302 305 305 298 291 292 303 309 312 319 318 318 322 324 327 330
316 312 316 305 308 309 307 304 303 302 307 307 307 305 305 301 303 304 307 307 310 313 306 302 296 298 301 305 305 305 304 304 300 298 295 301 306 312 315 319 318 321 327 331 332
313 315 318 314 312 309 302 302 302 304 304 303 303 305 308 302 303 300 303 305 303 307 301 303 296 298 298 303 306 303 304 304 304 304 310 313 309 318 321 318 314 317 319 325 330
325 325 318 311 309 306 307 307 304 308 308 306 304 303 303 303 305 301 301 301 306 303 302 302 299 296 292 302 301 297 304 304 305 308 311 305 311 315 312 312 311 315 321 327 333
Wind_Speed
11 11 10 11 10 10 9 9 10 10 11 11 11 12 12 14 17 4 7 9 9 10 5 7 10 13 10 5 7 7 4 7 11 13 15 10 10 6 13 20 17 12 11 29 23
12 11 11 11 10 10 9 9 10 10 10 10 11 12 13 13 5 10 12 10 11 13 4 10 12 14 9 4 6 4 3 3 5 4 5 8 14 11 13 7 19 20 20 23 20
11 12 11 11 10 9 9 9 9 10 10 11 11 11 12 10 5 9 4 19 11 10 7 13 13 10 8 4 4 4 7 5 11 12 16 5 10 7 20 18 22 19 24 21 19
11 11 12 12 11 10 10 10 9 10 10 10 10 11 12 5 1 3 6 16 12 7 6 9 11 9 12 9 12 12 15 17 5 13 12 4 2 5 10 20 20 14 21 16 16
11 11 12 12 11 10 10 9 9 9 9 10 10 10 7 4 10 6 10 10 7 5 10 12 12 10 12 2 7 9 19 20 12 22 7 10 10 4 20 22 16 13 15 15 14
12 11 11 12 12 11 10 10 10 9 9 9 9 10 4 5 6 10 10 8 8 9 11 14 9 10 8 3 13 7 20 21 17 9 4 7 3 4 9 21 18 13 9 14 17
12 12 12 12 12 12 12 11 11 10 9 8 7 5 6 15 1 12 12 8 8 10 10 15 17 8 9 2 11 8 21 12 8 4 5 3 5 6 2 13 18 12 9 19 20
12 12 12 12 12 12 12 12 12 10 9 8 6 5 9 8 15 14 10 9 11 11 14 13 10 9 4 7 3 10 7 6 6 9 4 0 4 4 6 9 14 14 12 20 17
12 11 12 12 12 11 12 13 13 10 8 6 4 5 9 3 5 11 8 11 12 9 12 18 9 7 6 4 5 4 5 4 10 9 7 5 4 7 2 5 5 11 9 18 19
13 12 12 12 12 12 14 13 7 5 6 8 8 5 8 13 6 12 8 12 10 10 11 8 3 2 4 2 5 9 7 5 9 6 8 7 6 6 2 3 4 8 11 11 18
13 13 12 11 11 11 11 2 1 2 6 10 6 7 10 11 7 7 8 10 7 4 6 5 3 7 11 14 14 6 8 7 8 11 4 7 7 13 4 3 4 6 9 10 13
14 13 13 13 12 8 4 4 9 11 7 15 17 16 17 8 4 8 8 5 6 7 8 5 9 12 14 16 11 5 3 8 9 9 6 5 6 7 5 1 5 5 9 9 4
14 17 16 17 15 5 7 10 11 15 4 8 15 8 7 6 6 8 10 9 7 8 9 9 13 16 17 13 1 9 2 9 9 4 1 8 4 6 6 4 2 5 4 9 6
15 17 17 22 4 4 8 14 14 14 3 4 8 6 10 5 9 14 11 9 7 10 12 10 18 14 13 9 7 6 16 18 18 9 5 2 1 8 7 13 8 9 7 7 8
18 17 16 8 9 5 9 15 3 2 3 6 4 3 6 7 4 11 11 10 12 8 7 13 11 10 12 14 7 11 9 16 10 5 10 5 8 5 15 19 18 13 12 14 7
16 16 16 1 5 13 15 16 9 3 4 5 8 5 6 9 13 11 6 7 9 12 8 12 10 7 9 13 11 10 15 17 9 3 3 13 10 5 15 30 24 17 15 14 10
16 14 7 8 6 9 12 5 2 3 3 4 4 9 10 5 8 10 9 8 6 3 7 11 12 9 4 4 4 9 18 5 3 2 3 9 10 13 23 19 23 20 20 18 17
19 14 8 8 10 9 8 2 1 7 12 15 17 10 6 5 11 11 8 9 12 11 5 5 7 1 4 4 8 8 7 5 5 1 6 4 6 8 3 3 9 14 16 19 20
28 4 4 7 13 5 3 2 3 4 12 13 8 5 4 10 9 7 8 10 12 13 4 4 10 6 8 6 5 4 5 11 9 5 2 3 1 4 18 14 16 9 11 18 21
3 4 7 7 11 4 2 6 7 5 10 4 4 5 2 10 7 4 7 12 14 10 6 5 5 5 9 7 8 4 4 4 2 4 4 0 5 6 3 5 3 9 11 15 19
3 3 5 13 10 2 4 10 2 8 3 4 4 2 5 2 12 13 11 17 4 5 9 6 3 9 5 6 8 3 5 3 3 3 6 2 4 8 9 11 11 12 8 11 16
5 3 6 7 2 5 5 6 5 4 3 4 6 2 1 6 6 2 4 2 24 13 5 6 3 5 4 2 7 7 7 8 6 9 3 5 3 8 14 18 14 13 18 16 14
4 4 5 4 5 7 7 3 7 10 8 10 4 3 4 4 5 6 2 8 12 7 3 5 6 5 14 5 8 4 7 5 5 2 6 1 2 5 4 7 6 8 9 6 13
4 4 2 3 8 12 9 0 5 4 5 5 7 9 7 9 4 3 2 5 4 5 7 1 3 3 8 9 4 8 15 15 5 1 4 4 5 2 7 2 8 9 12 14 13
4 5 7 6 5 12 4 5 7 4 1 3 1 7 3 5 8 4 5 4 12 3 6 4 3 5 6 4 3 10 14 18 9 8 5 7 6 6 1 10 5 7 20 20 17
3 8 7 10 4 7 4 4 5 8 10 6 6 6 8 5 1 6 4 1 2 7 4 3 2 7 7 4 2 5 13 13 16 13 15 15 8 6 5 7 7 11 23 17 19
5 6 3 8 6 2 1 6 8 4 2 7 9 7 11 10 6 5 8 7 8 3 3 4 4 4 5 9 3 1 6 10 19 12 9 8 4 7 11 11 8 8 7 11 7
Wind_Direction
340 340 337 335 326 317 310 308 308 308 311 318 321 323 325 321 310 216 237 234 194 190 196 237 214 229 231 201 144 138 50 332 328 74 143 143 106 76 95 133 127 104 138 132 138
338 336 337 335 328 318 310 305 300 303 306 312 318 323 322 324 285 247 233 220 124 156 202 226 209 230 215 221 143 89 80 240 275 297 164 127 122 143 112 215 125 134 117 126 128
340 337 338 334 331 322 309 301 297 301 306 310 318 320 319 317 272 241 235 205 157 169 231 241 238 216 218 133 161 83 174 185 299 297 280 96 154 186 148 133 140 145 129 143 141
340 339 337 335 327 317 312 307 304 303 306 311 317 319 314 269 344 59 58 165 157 192 217 260 264 253 235 191 202 141 202 182 224 278 276 341 184 3 138 131 130 137 141 153 140
336 337 338 335 329 319 311 305 304 303 307 311 315 320 312 227 250 149 126 129 152 201 209 225 253 245 245 190 36 134 167 183 169 218 95 75 34 31 115 123 127 144 145 135 141
337 334 334 334 330 322 314 305 302 301 302 304 310 318 244 253 128 143 162 148 203 193 213 234 250 241 280 107 88 251 175 181 183 125 66 85 25 95 129 129 139 165 162 131 129
340 337 334 331 329 324 319 311 302 298 297 296 298 278 264 246 357 169 157 180 207 191 224 232 250 270 319 26 145 93 134 110 132 97 109 110 18 89 187 135 148 166 171 133 141
341 337 332 330 327 321 314 305 297 289 286 285 286 270 257 231 240 268 169 181 206 210 233 249 251 277 316 306 118 135 265 135 191 137 160 152 245 289 24 158 153 167 190 138 147
336 335 334 332 328 320 309 301 293 279 262 259 239 246 263 248 213 241 176 202 200 212 236 249 227 243 299 274 4 219 177 94 160 167 147 206 212 264 37 42 145 175 169 138 147
336 335 333 335 330 321 311 290 286 290 223 214 261 275 257 235 207 222 196 227 190 201 233 242 4 237 264 248 227 231 191 203 169 167 163 149 190 254 170 96 345 316 152 135 134
335 333 327 324 327 327 330 254 209 209 246 217 185 241 302 227 176 205 175 232 196 212 204 191 165 227 228 233 230 269 119 128 100 42 242 186 143 188 231 82 320 325 135 101 144
334 333 330 326 315 326 290 245 250 281 304 236 253 239 262 114 155 197 188 214 171 216 208 250 215 236 239 252 269 129 324 67 78 80 300 197 163 181 182 216 255 149 85 82 8
334 337 332 324 316 283 229 243 276 295 291 276 222 246 261 155 197 204 162 216 182 231 217 213 237 216 238 255 150 284 129 161 126 148 38 24 131 192 238 154 234 109 126 119 117
335 335 332 323 310 321 260 255 241 258 300 235 189 216 235 215 237 179 183 193 189 215 236 226 250 220 227 243 193 72 119 129 135 143 117 77 248 220 206 233 209 191 186 157 169
336 332 325 333 310 276 264 311 325 352 319 152 156 78 164 216 282 158 191 243 265 232 188 247 239 238 203 231 176 129 155 133 123 92 118 165 291 222 186 217 217 198 188 185 189
323 328 326 178 206 249 296 297 309 351 256 261 142 182 241 212 256 150 184 240 275 284 247 246 253 242 201 215 186 184 119 124 132 144 198 154 189 228 194 208 207 191 190 189 182
314 316 296 304 244 304 311 266 314 236 251 252 157 165 214 260 264 159 183 230 239 247 268 261 257 252 109 81 307 218 131 139 270 266 255 166 171 244 222 217 201 190 186 187 192
311 305 232 229 250 297 317 307 88 233 268 74 56 62 75 80 310 258 187 224 247 256 220 213 283 113 120 202 212 201 170 173 74 334 289 247 196 329 28 58 176 214 194 192 201
313 146 225 234 226 255 315 282 272 272 50 92 75 70 46 70 254 279 199 226 236 234 195 307 252 210 201 181 191 232 145 231 130 210 150 176 119 301 69 44 45 16 227 194 200
297 282 229 212 162 213 286 256 259 264 47 92 112 97 80 258 234 334 218 217 247 247 112 276 264 259 208 151 269 208 236 6 323 188 232 172 126 200 104 186 43 346 309 230 188
247 282 226 148 173 215 249 260 203 87 358 52 84 153 209 191 31 297 347 308 351 301 77 355 33 302 171 180 191 275 296 289 149 147 188 161 269 182 164 186 132 272 265 271 187
309 295 152 145 185 226 242 317 353 44 301 139 137 234 92 61 81 322 8 208 321 4 18 344 298 308 251 162 216 212 227 200 128 287 256 162 242 144 162 188 186 211 216 212 213
300 281 161 162 249 259 272 304 32 8 6 15 85 139 198 147 122 164 100 280 299 39 34 329 338 349 352 7 13 328 321 288 212 225 268 79 243 79 81 66 49 353 305 287 203
283 285 197 197 242 268 284 167 106 26 343 12 345 345 33 37 25 124 248 254 333 57 339 55 24 105 148 252 238 323 331 336 327 70 238 13 110 67 89 42 1 337 11 346 237
228 276 305 235 229 249 37 69 105 151 190 323 160 311 57 86 53 346 328 353 343 39 338 44 23 27 177 225 354 299 320 316 333 256 114 174 72 145 151 101 233 58 51 8 145
291 331 340 290 347 304 126 95 123 54 25 28 34 62 92 108 43 51 119 318 318 319 320 312 316 25 336 329 255 265 296 348 338 356 85 95 87 154 132 126 70 68 79 23 328
348 333 298 295 311 263 306 310 108 52 89 55 13 20 42 3 11 339 306 292 189 224 358 39 36 44 303 341 264 198 335 26 355 27 97 64 78 74 73 72 84 50 61 154 239